Location: Unspecified
(0.0000°N, 0.0000°E)
Time: 12:14:14
(UTC+00:00)

STARLINK 1054 - Pass Details

Date: 11 December 2019
Orbit: 449 x 451 km, 53.0° (Epoch: 11 December)

Event Time Altitude Azimuth Distance (km) Brightness Sun altitude
Rises 19:41:37 0° 202° (SSW) 2,444 7.6 -24.8°
Reaches altitude 10° 19:43:50 10° 194° (SSW) 1,571 6.4 -25.3°
Enters shadow 19:45:06 19° 184° (S) 1,114 5.4 -25.6°
